Weather History for KCSM - February, 2012

Change the Weather History Date:

Saturday, February 25, 2012

  Actual Average Record
Temperature  
Mean Temperature 44 °F -  
Max Temperature 61 °F 52 °F 75 °F (1999)
Min Temperature 28 °F 30 °F 9 °F (2003)
Degree Days  
Heating Degree Days 20    
Moisture  
Dew Point 18 °F    
Average Humidity 38    
Maximum Humidity 69    
Minimum Humidity 17    
Precipitation  
Precipitation 0.00 in - - ()
Sea Level Pressure  
Sea Level Pressure 30.16 in    
Wind  
Wind Speed 15 mph (South)    
Max Wind Speed 34 mph    
Max Gust Speed 45 mph    
Visibility 10 miles    
Events      
Averages and records for this station are not official NWS values.
T = Trace of Precipitation, MM = Missing Value Source: NWS Daily Summary

Daily Weather History Graph

Daily Weather History Graph

Search for Another Location

Airport or City:

Trip Planner

Search our weather history database for the weather conditions in past years. The results will help you decide how hot, cold, wet, or windy it might be!

Date:

Astronomy

Feb. 25, 2012 Rise Set
Actual Time 7:12 AM CST 6:28 PM CST
Civil Twilight 6:46 AM CST 6:53 PM CST
Nautical Twilight 6:16 AM CST 7:23 PM CST
Astronomical Twilight 5:47 AM CST 7:52 PM CST
Moon 8:47 AM CST (2/25) 10:18 PM CST (2/25)
Length of Visible Light 12h 07m
Length of Day
11h 16m
Waxing Crescent, 14% of the Moon is Illuminated
Feb 25
Waxing Crescent
Feb 29
First Quarter
Mar 8
Full
Mar 14
Last Quarter
Mar 22
New

Hourly Weather History & Observations

Time (CST) Temp. Windchill Dew Point Humidity Pressure Visibility Wind Dir Wind Speed Gust Speed Precip Events Conditions
12:53 AM 33.1 °F 26.9 °F 21.0 °F 61% 30.34 in 10.0 mi North 6.9 mph - N/A   Clear
1:53 AM 34.0 °F 31.0 °F 19.0 °F 54% 30.35 in 10.0 mi NNW 3.5 mph - N/A   Clear
2:53 AM 32.0 °F 26.4 °F 19.0 °F 59% 30.34 in 10.0 mi SSE 5.8 mph - N/A   Clear
3:53 AM 33.1 °F 26.1 °F 19.0 °F 56% 30.32 in 10.0 mi SSE 8.1 mph - N/A   Clear
4:53 AM 28.9 °F - 19.0 °F 67% 30.32 in 10.0 mi North - - N/A   Clear
5:53 AM 28.0 °F 18.6 °F 19.0 °F 69% 30.31 in 10.0 mi South 10.4 mph - N/A   Clear
6:53 AM 28.9 °F 19.8 °F 19.0 °F 67% 30.31 in 10.0 mi South 10.4 mph - N/A   Clear
7:53 AM 33.1 °F 25.5 °F 19.9 °F 59% 30.31 in 10.0 mi South 9.2 mph - N/A   Clear
8:53 AM 41.0 °F 34.7 °F 19.9 °F 43% 30.31 in 10.0 mi South 10.4 mph - N/A   Clear
9:53 AM 45.0 °F 37.6 °F 21.0 °F 39% 30.29 in 10.0 mi SSW 17.3 mph - N/A   Clear
10:53 AM 50.0 °F - 21.9 °F 33% 30.25 in 10.0 mi SSW 24.2 mph - N/A   Clear
11:53 AM 55.0 °F - 23.0 °F 29% 30.20 in 10.0 mi South 25.3 mph 33.4 mph N/A   Clear
1:53 PM 60.1 °F - 16.0 °F 18% 30.10 in 10.0 mi SSW 34.5 mph 44.9 mph N/A   Clear
2:53 PM 61.0 °F - 18.0 °F 19% 30.07 in 10.0 mi South 28.8 mph 42.6 mph N/A   Clear
3:53 PM 61.0 °F - 18.0 °F 19% 30.04 in 10.0 mi South 29.9 mph 38.0 mph N/A   Clear
4:53 PM 60.1 °F - 15.1 °F 17% 30.01 in 10.0 mi South 33.4 mph 42.6 mph N/A   Clear
5:53 PM 57.9 °F - 16.0 °F 19% 29.99 in 10.0 mi South 29.9 mph 36.8 mph N/A   Clear
6:53 PM 54.0 °F - 15.1 °F 22% 29.99 in 10.0 mi South 26.5 mph 33.4 mph N/A   Clear
7:53 PM 53.1 °F - 15.1 °F 22% 29.97 in 10.0 mi South 26.5 mph 35.7 mph N/A   Clear
8:53 PM 51.1 °F - 15.1 °F 24% 29.96 in 10.0 mi South 26.5 mph 34.5 mph N/A   Clear
9:53 PM 50.0 °F - 17.1 °F 27% 29.94 in 10.0 mi South 33.4 mph 40.3 mph N/A   Clear
10:53 PM 48.0 °F - 17.1 °F 29% 29.96 in 10.0 mi South 27.6 mph 34.5 mph N/A   Clear
11:53 PM 46.9 °F - 18.0 °F 32% 29.96 in 10.0 mi South 23.0 mph 29.9 mph N/A   Clear